This is the latest recevied weather packets stored in our database for station/object N0ZJT. If no packets are shown the sender has not sent any weather packets the latest 1 day(s).
| Time | Temp. | Humidity | Pressure | Rain* | Wind** | Luminosity | Snow |
|---|---|---|---|---|---|---|---|
| 1778082382 | 9.44° C | 40% | 978.3 hPa | 0 mm | - | - | - |
| 1778081542 | 8.89° C | 41% | 978.3 hPa | 0 mm | - | - | - |
| 1778080582 | 8.33° C | 42% | 978 hPa | 0 mm | - | - | - |
| 1778079742 | 8.33° C | 44% | 978 hPa | 0 mm | - | - | - |
| 1778078782 | 7.78° C | 44% | 978.1 hPa | 0 mm | - | - | - |
| 1778077942 | 7.22° C | 45% | 978 hPa | 0 mm | - | - | - |
| 1778076982 | 7.22° C | 46% | 978.1 hPa | 0 mm | - | - | - |
| 1778075182 | 6.67° C | 49% | 977.9 hPa | 0 mm | - | - | - |
| 1778074342 | 6.67° C | 50% | 977.8 hPa | 0 mm | - | - | - |
| 1778073382 | 6.11° C | 52% | 977.6 hPa | 0 mm | - | - | - |
| 1778072542 | 5.56° C | 53% | 977.5 hPa | 0 mm | - | - | - |
| 1778071582 | 5.56° C | 54% | 977.5 hPa | 0 mm | - | - | - |
| 1778070742 | 5° C | 56% | 977.4 hPa | 0 mm | - | - | - |
| 1778069782 | 3.89° C | 57% | 977.1 hPa | 0 mm | - | - | - |
| 1778068942 | 3.89° C | 58% | 976.8 hPa | 0 mm | - | - | - |
| 1778067982 | 3.89° C | 57% | 976.4 hPa | 0 mm | - | - | - |
| 1778067142 | 3.89° C | 57% | 976.4 hPa | 0 mm | - | - | - |
| 1778066182 | 3.89° C | 57% | 976.4 hPa | 0 mm | - | - | - |
| 1778065342 | 3.89° C | 56% | 976.2 hPa | 0 mm | - | - | - |
| 1778064382 | 3.89° C | 55% | 976 hPa | 0 mm | - | - | - |
| 1778063542 | 3.89° C | 55% | 976 hPa | 0 mm | - | - | - |
| 1778062582 | 3.89° C | 54% | 975.8 hPa | 0 mm | - | - | - |
| 1778061742 | 4.44° C | 54% | 976 hPa | 0 mm | - | - | - |
| 1778060782 | 4.44° C | 53% | 976.1 hPa | 0 mm | - | - | - |
| 1778059942 | 4.44° C | 53% | 975.7 hPa | 0 mm | - | - | - |
* Rain latest hour (hover to see other rain measurements)
** Current wind speed in m/s (hover to see current wind gust speed)